Location: Il Ritiro
(43.4167°N, 13.1333°E)
Time: 08:11:09
(UTC+00:00)

Cosmos 2237 Rocket - Pass Details

Date: 05 July 2020
Orbit: 834 x 850 km, 71.0° (Epoch: 06 August)

Event Time Altitude Azimuth Distance (km) Brightness Sun altitude
Exits shadow 22:14:52 25° 227° (SW) 1,638 3.4 -22.6°
Maximum altitude 22:18:06 59° 298° (WNW) 976 2.6 -22.8°
Drops below altitude 10° 22:23:45 10° 18° (NNE) 2,486 5.4 -23.0°
Sets 22:26:15 0° 23° (NNE) 3,425 6.2 -23.1°
